Regional Weather Roundup
Issued by NWS

Home | Current Version | Previous Version | Graphics & Text | Print | Product List | Glossary On
Versions: 1 2 3 4 5 6 7 8 9 10 11 12 13 14 15 16 17 18 19 20 21 22 23 24 25 26 27 28 29 30 31 32 33 34 35 36 37 38 39 40 41 42 43 44 45 46 47 48 49 50
000
ASUS43 KMKX 271111
RWRWI

WISCONSIN REGIONAL WEATHER ROUNDUP
NATIONAL WEATHER SERVICE MILWAUKEE/SULLIVAN WI
500 AM CST THU NOV 27 2014

NOTE: "FAIR" INDICATES FEW OR NO CLOUDS BELOW 12,000 FEET WITH NO
SIGNIFICANT WEATHER AND/OR OBSTRUCTIONS TO VISIBILITY.

WIZ001-002-006>008-014>016-023>028-271200-
NORTHWEST WISCONSIN

CITY           SKY/WX    TMP DP  RH WIND       PRES   REMARKS
SUPERIOR ARPT  FAIR      -2  -8  75 W3        30.50R
ASHLAND        CLOUDY     1  -3  83 W6        30.43R WCI -10
HAYWARD        FAIR      -3  -8  79 N3        30.39R
SIREN          CLEAR     -3  -7  82 NW5       30.46R WCI -13
CUMBERLAND     CLEAR     -2  -8  78 NW10      30.40R WCI -19
RICE LAKE      CLEAR      0  -5  79 NW6       30.43R WCI -12
CHETEK         CLEAR      0  -4  81 W5        30.40S WCI -10
LADYSMITH      CLEAR      2  -1  84 NW9       30.38R WCI -12
EAU CLAIRE     CLEAR      3  -4  72 N8        30.40R WCI -10
MENOMONIE      CLEAR      4  -4  71 NW9       30.42S WCI -11
NEW RICHMOND   CLEAR      0  -5  78 N10       30.44S WCI -16
OSCEOLA        CLEAR      1  -5  77 N8        30.49S WCI -13
$$

WIZ003>005-009-010-017-018-271200-
NORTH CENTRAL WISCONSIN

CITY           SKY/WX    TMP DP  RH WIND       PRES   REMARKS
MANITOWISH WTR SNOW       9   6  87 NW6       30.27R VSB 1/2 WCI  -1
ARBOR VITAE    LGT SNOW  11   8  87 N5        30.26S WCI   3
WOODRUFF       LGT SNOW  11   8  87 N5        30.26S WCI   3
RHINELANDER    CLOUDY     8   4  83 NW5       30.26R WCI   0
EAGLE RIVER    FLURRIES   6   2  82 NW5       30.25R WCI  -2
LAND O LAKES   LGT SNOW   7   4  87 CALM      30.25S
PHILLIPS       FLURRIES   5   1  82 NW6       30.30R WCI  -5
TOMAHAWK       LGT SNOW   9   6  84 NW5       30.28S WCI   1
MEDFORD        CLOUDY     8   3  80 NW12      30.28R WCI  -7
MERRILL        LGT SNOW  12   8  85 NW5       30.28R WCI   4
$$

WIZ029-030-035-036-043>047-271200-
CENTRAL WISCONSIN

CITY           SKY/WX    TMP DP  RH WIND       PRES   REMARKS
WAUSAU         LGT SNOW  13   8  81 NW10      30.27R WCI   0
MOSINEE        FLURRIES  14  12  92 NW10      30.27R WCI   1
MARSHFIELD     LGT SNOW  14   8  77 NW15      30.29R WCI  -1
STEVENS POINT  CLOUDY    13   9  85 NW6       30.28R WCI   4
WAUPACA        CLOUDY    21  16  79 NW10      30.28R WCI  10
WAUTOMA        CLOUDY    18  13  80 NW12      30.29R WCI   6
WISC RAPIDS    CLOUDY    16   8  71 N12       30.31R WCI   3
CAMP DOUGLAS   CLOUDY    17  16  93 NW9       30.31S WCI   6
$$

WIZ011>013-019>022-031-037>040-048>050-271200-
NORTHEAST WISCONSIN

CITY           SKY/WX    TMP DP  RH WIND       PRES   REMARKS
ANTIGO         CLOUDY    10   6  82 N9        30.24R WCI  -3
SHAWANO        CLOUDY    22  14  72 N8        30.27R WCI  12
OCONTO         CLOUDY    19  13  79 N10       30.26R WCI   7
STURGEON BAY   CLOUDY    21  16  79 N16       30.23R WCI   7
GREEN BAY      LGT SNOW  22  18  85 N14       30.26R FOG     WCI   9
MANITOWOC      CLOUDY    24  21  88 N13       30.23R WCI  12
APPLETON       NOT AVBL
CLINTONVILLE   FLURRIES  21  16  79 NW6       30.26R WCI  14
OSHKOSH        CLOUDY    22  17  81 MISG      30.25R
$$

WIZ032>034-041-042-053>061-271200-
SOUTHWEST WISCONSIN

CITY           SKY/WX    TMP DP  RH WIND       PRES   REMARKS
LA CROSSE      CLOUDY    19  11  70 N9        30.37R WCI   8
SPARTA         CLOUDY    17  12  80 NW7       30.35R WCI   8
VIROQUA        CLOUDY    16  12  84 NW10      30.31R WCI   3
BOSCOBEL       CLOUDY    25  17  72 NW8       30.34R WCI  16
PRAIRIE DU CHI CLOUDY    22  14  72 NW9       30.35R WCI  12
PLATTEVILLE    CLOUDY    24  19  82 NW3       30.32R
$$

WIZ056-057-062-063-064-067-068-271200-
SOUTH CENTRAL WISCONSIN

CITY           SKY/WX    TMP DP  RH WIND       PRES   REMARKS
REEDSBURG      FLURRIES  20  16  83 N10       30.30R WCI   9
BARABOO/DELLS  FLURRIES  19  15  84 N7        30.29R WCI   9
LONE ROCK      CLOUDY    26  15  63 NW10      30.32R WCI  16
MINERAL POINT  FLURRIES  25  19  80 NW9       30.28R WCI  15
MADISON        CLOUDY    22  16  78 N10       30.28R WCI  11
MIDDLETON      CLOUDY    24  20  85 NW8       30.28R WCI  15
WATERTOWN      CLOUDY    21  19  93 NW8       30.25S WCI  12
MONROE         CLOUDY    23  21  93 W8        30.27R WCI  14
JANESVILLE     LGT SNOW  23  21  93 W5        30.26R WCI  17
$$

WIZ051-052-058>065-066-070>072-271200-
SOUTHEAST WISCONSIN

CITY           SKY/WX    TMP DP  RH WIND       PRES   REMARKS
MILWAUKEE      MOCLDY    24  18  77 NW10      30.23R WCI  14
WAUKESHA       CLOUDY    21  19  93 NW10      30.25R WCI  10
MILWAUKEE/TIMM CLOUDY    23  19  86 NW9       30.25R WCI  13
RACINE         CLOUDY    24  19  81 NW9       30.24S WCI  14
BURLINGTON     CLOUDY    20  18  91 NW10      30.24R WCI   9
KENOSHA        CLOUDY    23  19  85 NW8       30.23R WCI  14
FOND DU LAC    FLURRIES  22  17  81 NW12      30.25R WCI  10
SHEBOYGAN      CLOUDY    23  18  81 NW10      30.23R WCI  12
WEST BEND      CLOUDY    23  19  86 NW8       30.23R WCI  14
JUNEAU         FLURRIES  21  18  87 NW8       30.26R WCI  11
$$

LSZ147-162-271200-
LAKE SUPERIOR

STATION/POSITION TIME  TEMP    WIND        PRES    WAVE
                       AIR SEA DIR/SP/G            HT/PER
                 (UTC) (F)     (DEG/KT/KT) (MB)    (FT/S)
DEVILS ISLAND    1100    8     340/ 13/ 15 1032.1R
PORT WING        1000    9     300/ 13/ 15 1030.5
SAXON HARBOR     1000   14     340/ 12/ 16 1028.4S
$$

LMZ867-665-643>646-271200-
LAKE MICHIGAN

STATION/POSITION TIME  TEMP    WIND        PRES    WAVE
                       AIR SEA DIR/SP/G            HT/PER
                 (UTC) (F)     (DEG/KT/KT) (MB)    (FT/S)
CHAMBERS ISLAND  1000   23     330/ 18/ 25 1023.4S
N MID LAKE BUOY  1050   26 42  350/ 23/ 25 1023.1R   5/ 5
NORTHPORT PIER   1005   25     330/ 21     1023.0R
SISTER BAY       1013          360/ 30/ 35   N/A
KEWAUNEE LAKESHO 1000   24     330/  9/ 14 1022.1R
SHEBOYGAN LAKESH 1100   24 36  310/ 12/ 13 1024.7R
PORT WASHINGTON  1000   24     300/  5/  9 1024.4
MILWAUKEE LAKESH 1000   25     320/  7/  9   N/A
S MID LAKE BUOY  1050   32 42  320/ 19/ 23 1023.0R   3/ 5
KENOSHA   LAKESH 1100   23     300/  8/ 11 1023.7R
$$

TC  - TEMPERATURE IN CELSIUS
VSB - VISIBILITY IN STATUTE MILES
WCI - WIND CHILL INDEX
HX  - HEAT INDEX



USA.gov is the U.S. government's official web portal to all federal, state and local government web resources and services.